FENGYUN 1C DEB

Satellite information

Favourite Embed

Satellite Type and Status

DEBRISIN ORBIT

Key statistics

Satellite FENGYUN 1C DEB at a glance.

Uptime

9495

Days in orbit

Revolutions

≈ 13.6

Per day

Orbit

SSO

Sun Synchronous Orbit

Inclination

99.2

Latest

Satellite identification and parameters

Extended collection of information and parameters for FENGYUN 1C DEB.

Object identification

Identified? True

Debris? True

Object name: FENGYUN 1C DEB

International designator: 1999-025DBC

Object number (NORAD): 32440

Object ID (CCSDS): 32440

Country: PEOPLES REPUBLIC OF CHINA (PRC)

Current information (Y/N): Y

RCS size: SMALL

Orbital parameters

Period: 105.895 minutes

Inclination: 99.1574 deg

SMA: 7414.427 km

Apoapsis: 1280.589 km

Periapsis: 791.995 km

RAAN: 352.4154 deg

Eccentricy: 0.0329489

Argument of periapsis: 307.4194 deg

Mean anomaly: 49.7378 deg

Mean motion: 13.59835444 rev/day

Mean motion (dot): 0.00004712 rev/day2

B* drag term: 0.0044643 1/REarth

Two-line elements (TLE)

Creation date: May 3, 2025, 5:28 p.m.

Reference frame: TEME

Reference center: EARTH

Epoch: May 3, 2025, 8:13 a.m. UTC

TLE line 0: 0 FENGYUN 1C DEB

TLE line 1: 1 32440U 99025DBC 25123.34251028 .00004712 00000-0 44643-2 0 9993

TLE line 2: 2 32440 99.1574 352.4154 0329489 307.4194 49.7378 13.59835444572487

Live tracking on map

Real-time ground track for satellite FENGYUN 1C DEB.

In-orbit conjunctions

A list of the most updated potential collisions computed for object FENGYUN 1C DEB.

Target Orbit TCA Probability of collision Miss distance Type
CZ-6A DEB SSO 2025-03-28 01:53:19 0.0001415773 145.0 (m) DEBRIS
NOAA 16 DEB SSO 2024-11-15 12:12:41 0.0001125081 671.0 (m) DEBRIS
COSMOS 2230 LEO 2024-11-03 22:24:41 0.0001659937 437.0 (m) PAYLOAD

Associated space launch

Chinese polar orbiting meteorological satellite

FENGYUN 1C DEB was lifted into orbit during the mission ‘Long March 4B | Feng Yun 1C’, on board a Long March 4B space rocket.

The launch took place on May 10, 1999, 1:33 a.m. from Launch Complex 7.

For more information about the launch, click the button.

Launch to space Long March 4B | Feng Yun 1C
Long March 4B | Feng Yun 1C

Agency: N/A

Status: Launch Successful

Launch date: May 10, 1999, 1:33 a.m. UTC

Rocket: Long March 4B

Launch pad: Launch Complex 7

Location: Taiyuan Satellite Launch Center, People's Republic of China

...

Latest news about this satellite

There are no fresh news available about this satellite. Check back as we update our databases every day.


Newsletter sign-up

Weekly statistics, charts and insights to help you stay on top of the space industry.